CW0565 Kristiansand NO current weather conditions

sailwx.info

Wind from 207 at 2 knots gusting 6

Air temperature 13.3° C
Dewpoint 7.3° C

Last reported at 2019-Aug-21 19:05 UTC.
Time now 2019-Aug-21 19:54 UTC

Location: N 58°16' E 007°57'.
View on Google Maps.

See reports from other nearby stations

  
Tides and Currents Weather Stations Pressure Air Temp Water Temp Dewpoint Dewpoint Depression Visibility Wind Speed Wind Dir Waves Ship Positions
date/time (UTC)wind fromknots sea level pressurealtimeterstation pressurevisibilityair tempwater tempwave heightnotes
2019-Aug-21 19:05 207 2 gusting 6 13.3
2019-Aug-21 19:01 210 1 gusting 4 13.3
2019-Aug-21 18:56 210 2 gusting 6 13.3
2019-Aug-21 18:51 210 2 gusting 6 13.3
2019-Aug-21 18:46 207 3 gusting 5 13.3
2019-Aug-21 18:40 210 3 gusting 6 13.9
2019-Aug-21 18:35 210 3 gusting 6 13.9
2019-Aug-21 18:32 213 4 gusting 6 13.9
2019-Aug-21 18:25 206 3 gusting 6 13.9
2019-Aug-21 18:21 204 4 gusting 6 13.9
2019-Aug-21 18:17 225 2 gusting 6 14.4
2019-Aug-21 18:10 203 2 gusting 7 14.4
2019-Aug-21 18:05 211 2 gusting 7 14.4
2019-Aug-21 18:02 248 3 gusting 11 15.0
2019-Aug-21 17:50 212 2 gusting 8 15.0
2019-Aug-21 17:46 207 2 gusting 10 15.0
2019-Aug-21 17:41 225 6 gusting 10 15.0
2019-Aug-21 17:36 209 4 gusting 8 15.0
2019-Aug-21 17:32 220 3 gusting 8 15.0
2019-Aug-21 17:25 242 5 gusting 8 15.0
2019-Aug-21 17:20 246 4 gusting 12 15.6
2019-Aug-21 17:16 289 3 gusting 12 15.6
2019-Aug-21 17:10 273 5 gusting 11 15.6
2019-Aug-21 17:05 309 5 gusting 11 15.6
2019-Aug-21 17:01 264 4 gusting 10 15.6
2019-Aug-21 16:55 232 4 gusting 13 15.6
2019-Aug-21 16:51 306 6 gusting 13 15.6
2019-Aug-21 16:48 238 6 gusting 13 15.6
2019-Aug-21 16:40 261 5 gusting 13 15.6
2019-Aug-21 16:35 240 6 gusting 13 16.1
2019-Aug-21 16:31 296 4 gusting 9 16.1
2019-Aug-21 16:25 241 3 gusting 12 16.1
2019-Aug-21 16:20 282 6 gusting 12 16.1
2019-Aug-21 16:16 245 5 gusting 13 16.1
2019-Aug-21 16:10 278 2 gusting 13 16.1
2019-Aug-21 16:05 252 6 gusting 13 16.1
2019-Aug-21 16:01 237 3 gusting 15 16.1
2019-Aug-21 15:55 249 6 gusting 14 16.7
2019-Aug-21 15:50 252 4 gusting 13 16.7
2019-Aug-21 15:46 295 4 gusting 11 16.7
2019-Aug-21 15:40 248 3 gusting 13 16.7
2019-Aug-21 15:35 246 5 gusting 13 16.7
2019-Aug-21 15:31 271 4 gusting 13 16.7
2019-Aug-21 15:25 252 5 gusting 13 16.7
2019-Aug-21 15:20 270 5 gusting 15 17.2
2019-Aug-21 15:16 192 5 gusting 15 16.7
2019-Aug-21 15:10 262 7 gusting 14 17.2
2019-Aug-21 15:05 242 1 gusting 12 17.2
2019-Aug-21 15:01 264 5 gusting 13 17.2
2019-Aug-21 14:55 269 6 gusting 13 16.7
2019-Aug-21 14:50 215 6 gusting 14 16.7
2019-Aug-21 14:46 209 6 gusting 14 17.2
2019-Aug-21 14:40 258 6 gusting 14 17.2
2019-Aug-21 14:35 271 4 gusting 13 17.2
2019-Aug-21 14:31 280 5 gusting 16 17.2
2019-Aug-21 14:25 266 4 gusting 16 17.2
2019-Aug-21 14:20 248 2 gusting 14 17.2
2019-Aug-21 14:16 248 8 gusting 14 17.2
2019-Aug-21 14:10 259 6 gusting 14 17.2
2019-Aug-21 14:05 257 7 gusting 15 17.2
2019-Aug-21 14:01 254 10 gusting 16 17.2
2019-Aug-21 13:55 213 9 gusting 16 17.2
2019-Aug-21 13:50 248 4 gusting 9 17.2
2019-Aug-21 13:46 239 4 gusting 13 17.2
2019-Aug-21 13:40 255 4 gusting 13 17.2
2019-Aug-21 13:35 310 6 gusting 13 17.2
2019-Aug-21 13:31 238 0 gusting 13 17.2
2019-Aug-21 13:25 245 6 gusting 15 17.2
2019-Aug-21 13:20 227 10 gusting 15 16.7
2019-Aug-21 13:15 284 6 gusting 13 17.2
2019-Aug-21 13:10 313 6 gusting 12 17.2
2019-Aug-21 13:05 271 4 gusting 13 17.2
2019-Aug-21 13:00 257 3 gusting 13 17.2
2019-Aug-21 12:55 275 7 gusting 13 17.8
2019-Aug-21 12:50 252 6 gusting 13 17.8
2019-Aug-21 12:45 260 4 gusting 9 17.8
2019-Aug-21 12:40 288 3 gusting 7 17.8
2019-Aug-21 12:35 277 3 gusting 12 17.2
2019-Aug-21 12:31 313 6 gusting 12 17.2
2019-Aug-21 12:25 300 3 gusting 12 17.2
2019-Aug-21 12:20 307 3 gusting 12 16.7
2019-Aug-21 12:16 300 5 gusting 13 16.7
2019-Aug-21 12:10 245 6 gusting 13 16.7
2019-Aug-21 12:05 227 4 gusting 11 16.7
2019-Aug-21 12:01 270 6 gusting 13 16.7
2019-Aug-21 11:55 267 5 gusting 12 16.7
2019-Aug-21 11:50 250 4 gusting 12 16.7
2019-Aug-21 11:45 290 6 gusting 11 16.7
2019-Aug-21 11:40 299 4 gusting 11 16.1
2019-Aug-21 11:35 265 4 gusting 12 16.1
2019-Aug-21 11:31 288 3 gusting 13 16.7
2019-Aug-21 11:25 333 5 gusting 13 17.2
2019-Aug-21 11:20 252 2 gusting 12 16.7
2019-Aug-21 11:15 217 6 gusting 12 16.1
2019-Aug-21 11:10 263 5 gusting 11 16.1
2019-Aug-21 11:05 319 3 gusting 11 16.1
2019-Aug-21 11:00 322 4 gusting 12 16.7
2019-Aug-21 10:55 313 6 gusting 12 16.7
2019-Aug-21 10:50 250 2 gusting 12 16.7
2019-Aug-21 10:46 260 3 gusting 8 16.1
2019-Aug-21 10:40 248 2 gusting 11 16.1
2019-Aug-21 10:35 308 5 gusting 12 16.7
2019-Aug-21 10:31 279 3 gusting 12 17.2
2019-Aug-21 10:25 287 4 gusting 12 16.7
2019-Aug-21 10:20 268 5 gusting 13 16.1
2019-Aug-21 10:15 215 7 gusting 13 16.1
2019-Aug-21 10:10 244 6 gusting 12 16.1
2019-Aug-21 10:05 229 6 gusting 12 16.1
2019-Aug-21 10:00 248 6 gusting 13 16.1
2019-Aug-21 09:55 282 4 gusting 13 15.6
2019-Aug-21 09:50 328 7 gusting 13 15.6
2019-Aug-21 09:45 272 3 gusting 10 16.1
2019-Aug-21 09:40 285 6 gusting 10 16.7
2019-Aug-21 09:35 245 0 gusting 10 16.1
2019-Aug-21 09:30 288 3 gusting 13 15.6
2019-Aug-21 09:25 322 6 gusting 17 15.0
2019-Aug-21 09:15 310 6 gusting 14 15.6
2019-Aug-21 09:05 319 7 gusting 15 15.0
2019-Aug-21 08:55 348 7 gusting 14 15.0
2019-Aug-21 08:50 015 7 gusting 14 15.0
2019-Aug-21 08:40 300 10 gusting 16 14.4
2019-Aug-21 08:35 300 6 gusting 17 14.4
2019-Aug-21 08:30 300 11 gusting 16 14.4
2019-Aug-21 08:21 322 6 gusting 9 15.0
2019-Aug-21 08:16 295 4 gusting 12 15.0
2019-Aug-21 08:10 306 4 gusting 12 15.0
2019-Aug-21 08:06 283 5 gusting 14 14.4
2019-Aug-21 08:01 300 3 gusting 15 13.9
2019-Aug-21 07:55 311 9 gusting 13 13.9
2019-Aug-21 07:50 321 7 gusting 12 13.9
2019-Aug-21 07:46 311 7 gusting 12 13.9
2019-Aug-21 07:40 310 4 gusting 13 13.9
2019-Aug-21 07:35 310 8 gusting 13 13.9
2019-Aug-21 07:32 299 4 gusting 8 13.9
2019-Aug-21 07:25 296 3 gusting 7 13.9
2019-Aug-21 07:20 302 1 gusting 11 13.3
2019-Aug-21 07:16 315 0 gusting 11 13.3
2019-Aug-21 07:10 325 3 gusting 8 13.3
2019-Aug-21 07:05 273 2 gusting 10 12.8
2019-Aug-21 07:00 286 5 gusting 13 12.8
2019-Aug-21 06:55 288 7 gusting 13 12.8
2019-Aug-21 06:50 346 6 gusting 13 12.8
2019-Aug-21 06:46 319 5 gusting 10 12.2
2019-Aug-21 06:40 291 4 gusting 8 12.2
2019-Aug-21 06:35 280 3 gusting 8 12.2
2019-Aug-21 06:31 272 1 gusting 8 12.2
2019-Aug-21 06:25 276 3 gusting 8 11.7
2019-Aug-21 06:20 279 4 gusting 8 11.7
2019-Aug-21 06:15 284 1 gusting 8 11.1
2019-Aug-21 06:10 286 5 gusting 8 11.1
2019-Aug-21 06:05 298 4 gusting 8 10.6
2019-Aug-21 06:00 296 0 gusting 3 10.6
2019-Aug-21 05:55 301 0 gusting 3 10.6
2019-Aug-21 05:50 301 10.6
2019-Aug-21 05:46 301 0 gusting 9 10.6
2019-Aug-21 05:40 295 2 gusting 9 10.0
2019-Aug-21 05:35 255 1 gusting 6 9.4
2019-Aug-21 05:30 280 0 gusting 5 8.9
2019-Aug-21 05:25 304 8.9
2019-Aug-21 05:20 304 0 gusting 3 9.4
2019-Aug-21 05:10 304 2 gusting 8 9.4
2019-Aug-21 05:05 323 0 gusting 3 9.4
2019-Aug-21 04:55 299 0 gusting 3 8.9
2019-Aug-21 04:50 288 0 gusting 3 8.9
2019-Aug-21 04:45 288 8.9
2019-Aug-21 04:40 287 8.9
2019-Aug-21 04:35 287 8.9
2019-Aug-21 04:30 287 9.4
2019-Aug-21 04:25 287 1 gusting 7 9.4
2019-Aug-21 04:17 281 1 gusting 8 8.9
2019-Aug-21 04:11 296 1 gusting 8 8.9
2019-Aug-21 04:06 287 2 gusting 6 8.9
2019-Aug-21 04:02 239 8.9
2019-Aug-21 03:56 239 8.9
2019-Aug-21 03:50 238 2 gusting 3 8.9
2019-Aug-21 03:47 273 0 gusting 7 8.9
2019-Aug-21 03:40 273 2 gusting 7 8.9
2019-Aug-21 03:36 287 0 gusting 3 8.9
2019-Aug-21 03:32 323 8.3
2019-Aug-21 03:25 323 8.9
2019-Aug-21 03:20 323 8.9
2019-Aug-21 03:16 323 0 gusting 3 8.9
2019-Aug-21 03:11 323 0 gusting 2 8.9
2019-Aug-21 03:05 327 8.9
2019-Aug-21 03:02 319 0 gusting 10 9.4
2019-Aug-21 02:56 283 5 gusting 10 9.4
2019-Aug-21 02:51 299 2 gusting 9 9.4
2019-Aug-21 02:46 275 3 gusting 9 8.9
2019-Aug-21 02:40 275 2 gusting 6 8.9
2019-Aug-21 02:35 286 2 gusting 9 8.9
2019-Aug-21 02:31 287 3 gusting 9 8.9
2019-Aug-21 02:25 258 3 gusting 8 8.9
2019-Aug-21 02:20 297 1 gusting 5 8.9
2019-Aug-21 02:17 300 0 gusting 6 8.9
2019-Aug-21 02:10 296 1 gusting 6 8.9
2019-Aug-21 02:05 294 8.9
2019-Aug-21 02:02 294 8.9
2019-Aug-21 01:55 294 0 gusting 3 8.9
2019-Aug-21 01:50 294 0 gusting 8 9.4
2019-Aug-21 01:47 293 2 gusting 9 9.4
2019-Aug-21 01:40 321 3 gusting 9 9.4
2019-Aug-21 01:35 308 3 gusting 9 9.4
2019-Aug-21 01:31 282 4 gusting 11 9.4
2019-Aug-21 01:25 246 5 gusting 11 9.4
2019-Aug-21 01:20 255 6 gusting 12 9.4
2019-Aug-21 01:15 259 6 gusting 11 9.4
2019-Aug-21 01:10 265 4 gusting 11 9.4
2019-Aug-21 01:05 260 4 gusting 11 9.4
2019-Aug-21 01:01 277 5 gusting 10 9.4
2019-Aug-21 00:55 232 5 gusting 10 9.4
2019-Aug-21 00:50 253 4 gusting 9 9.4
2019-Aug-21 00:46 232 5 gusting 10 9.4
2019-Aug-21 00:40 281 4 gusting 10 9.4
2019-Aug-21 00:35 269 2 gusting 8 9.4
2019-Aug-21 00:30 269 5 gusting 10 9.4
2019-Aug-21 00:25 262 4 gusting 10 9.4
2019-Aug-21 00:20 281 4 gusting 7 9.4
2019-Aug-21 00:15 276 2 gusting 10 9.4
2019-Aug-21 00:10 267 3 gusting 10 10.0
2019-Aug-21 00:05 260 3 gusting 9 10.0
2019-Aug-21 00:01 245 4 gusting 9 10.0
2019-Aug-20 23:55 239 3 gusting 9 10.0
2019-Aug-20 23:50 261 3 gusting 8 10.0
2019-Aug-20 23:45 272 3 gusting 9 10.0
2019-Aug-20 23:40 249 2 gusting 9 10.0
2019-Aug-20 23:35 298 3 gusting 11 10.0
2019-Aug-20 23:30 279 4 gusting 11 10.0
2019-Aug-20 23:25 270 4 gusting 10 10.6
2019-Aug-20 23:20 299 4 gusting 12 10.6
2019-Aug-20 23:16 295 6 gusting 12 10.6
2019-Aug-20 23:10 307 6 gusting 11 10.6
2019-Aug-20 23:05 252 5 gusting 8 10.6
2019-Aug-20 23:01 261 5 gusting 10 10.0
2019-Aug-20 22:55 292 5 gusting 8 10.0
2019-Aug-20 22:50 278 4 gusting 9 10.0
2019-Aug-20 22:45 296 4 gusting 9 10.0
2019-Aug-20 22:40 282 2 gusting 7 10.0
2019-Aug-20 22:35 296 4 gusting 7 10.0
2019-Aug-20 22:30 312 2 gusting 5 10.0
2019-Aug-20 22:25 338 2 gusting 5 10.0
2019-Aug-20 22:20 294 1 gusting 4 10.0
2019-Aug-20 22:15 294 1 gusting 4 10.0
2019-Aug-20 22:10 294 10.0
2019-Aug-20 22:05 294 10.6
2019-Aug-20 21:55 294 0 gusting 6 10.6
2019-Aug-20 21:50 316 2 gusting 10 10.6
2019-Aug-20 21:40 306 2 gusting 7 10.6
2019-Aug-20 21:35 290 1 gusting 7 10.6
2019-Aug-20 21:30 036 0 gusting 3 10.6
2019-Aug-20 21:25 037 0 gusting 3 10.6
2019-Aug-20 21:20 055 1 gusting 4 10.6
2019-Aug-20 21:10 010 0 gusting 4 10.6
2019-Aug-20 21:05 011 0 gusting 4 11.1
2019-Aug-20 21:00 026 2 gusting 4 11.1
2019-Aug-20 20:55 355 1 gusting 4 11.1
2019-Aug-20 20:50 239 1 gusting 7 11.1
2019-Aug-20 20:45 238 2 gusting 8 11.7
2019-Aug-20 20:35 263 5 gusting 10 11.7
2019-Aug-20 20:26 217 4 gusting 12 11.7
2019-Aug-20 20:17 222 6 gusting 12 11.7
2019-Aug-20 20:10 239 6 gusting 12 11.7
2019-Aug-20 20:06 198 5 gusting 12 12.2
2019-Aug-20 20:02 211 5 gusting 9 12.2
2019-Aug-20 19:56 245 3 gusting 7 12.2
2019-Aug-20 19:50 200 2 gusting 7 12.2
2019-Aug-20 19:47 215 2 gusting 8 12.2
2019-Aug-20 19:35 211 4 gusting 7 12.2
2019-Aug-20 19:32 213 4 gusting 7 12.2
2019-Aug-20 19:25 207 4 gusting 7 12.8
2019-Aug-20 19:20 219 3 gusting 7 12.8
2019-Aug-20 19:16 211 3 gusting 6 12.8
2019-Aug-20 19:11 205 3 gusting 6 12.8
2019-Aug-20 19:06 226 2 gusting 4 12.8
2019-Aug-20 19:01 229 1 gusting 4 13.3
2019-Aug-20 18:55 249 1 gusting 8 13.3
2019-Aug-20 18:46 246 4 gusting 10 13.3
2019-Aug-20 18:40 210 4 gusting 8 13.3
2019-Aug-20 18:35 211 4 gusting 8 13.9
2019-Aug-20 18:32 198 5 gusting 8 13.9
2019-Aug-20 18:25 211 3 gusting 7 13.9
2019-Aug-20 18:20 239 2 gusting 6 13.9
2019-Aug-20 18:16 207 3 gusting 5 13.9
2019-Aug-20 18:10 219 2 gusting 6 13.9
2019-Aug-20 18:05 193 1 gusting 6 14.4
2019-Aug-20 18:01 202 2 gusting 6 14.4
2019-Aug-20 17:55 221 3 gusting 6 14.4
2019-Aug-20 17:50 220 2 gusting 6 14.4
2019-Aug-20 17:46 211 3 gusting 7 14.4
2019-Aug-20 17:40 232 2 gusting 8 15.0
2019-Aug-20 17:35 226 2 gusting 9 15.0
2019-Aug-20 17:32 253 6 gusting 10 15.0
2019-Aug-20 17:25 257 3 gusting 11 15.0
2019-Aug-20 17:20 244 4 gusting 11 15.0
2019-Aug-20 17:17 232 5 gusting 11 15.0
2019-Aug-20 17:10 246 5 gusting 13 15.0
2019-Aug-20 17:05 251 6 gusting 13 15.0
2019-Aug-20 17:01 230 6 gusting 12 15.6
2019-Aug-20 16:55 262 6 gusting 12 15.6
2019-Aug-20 16:50 257 3 gusting 10 15.6
2019-Aug-20 16:46 229 4 gusting 7 15.6
2019-Aug-20 16:40 246 3 gusting 11 15.6
2019-Aug-20 16:35 270 5 gusting 11 15.6
2019-Aug-20 16:30 233 4 gusting 12 15.6
2019-Aug-20 16:25 243 6 gusting 14 15.6
2019-Aug-20 16:20 217 5 gusting 14 15.6
2019-Aug-20 16:16 269 6 gusting 13 15.6
2019-Aug-20 16:10 240 7 gusting 13 15.6
2019-Aug-20 16:05 266 5 gusting 11 15.6
2019-Aug-20 16:00 259 4 gusting 11 15.6
2019-Aug-20 15:55 207 3 gusting 11 15.6
2019-Aug-20 15:50 202 15.6
2019-Aug-20 15:46 209 15.0
2019-Aug-20 15:40 188 3 gusting 6 15.0
2019-Aug-20 15:35 171 4 gusting 6 15.6
2019-Aug-20 15:31 182 15.6
2019-Aug-20 15:25 188 3 gusting 7 15.6
2019-Aug-20 15:20 204 3 gusting 7 16.1
2019-Aug-20 15:15 201 3 gusting 7 16.1
2019-Aug-20 15:10 255 5 gusting 9 16.1
2019-Aug-20 15:05 188 5 gusting 11 16.1
2019-Aug-20 15:00 243 5 gusting 11 16.1
2019-Aug-20 14:55 259 2 gusting 6 16.1
2019-Aug-20 14:50 230 16.1
2019-Aug-20 14:46 290 16.7
2019-Aug-20 14:40 290 0 gusting 8 16.1
2019-Aug-20 14:35 263 16.1
2019-Aug-20 14:30 238 6 gusting 12 16.1
2019-Aug-20 14:25 216 4 gusting 12 16.1
2019-Aug-20 14:20 250 6 gusting 12 16.1
2019-Aug-20 14:15 220 5 gusting 13 15.6
2019-Aug-20 14:10 202 7 gusting 13 15.0
2019-Aug-20 14:05 219 6 gusting 13 15.0
2019-Aug-20 14:00 239 5 gusting 9 14.4
2019-Aug-20 13:55 211 4 gusting 10 14.4
2019-Aug-20 13:50 248 6 gusting 12 14.4
2019-Aug-20 13:45 238 6 gusting 16 14.4
2019-Aug-20 13:40 232 8 gusting 16 15.0
2019-Aug-20 13:35 195 8 gusting 17 16.1
2019-Aug-20 13:30 232 8 gusting 15 16.7
2019-Aug-20 13:25 210 8 gusting 15 17.2
2019-Aug-20 13:20 227 5 gusting 17 16.7
2019-Aug-20 13:15 184 11 gusting 15 17.2
2019-Aug-20 13:10 185 9 gusting 14 17.2
2019-Aug-20 13:05 219 6 gusting 14 17.2
2019-Aug-20 13:00 188 9 gusting 17 17.2
2019-Aug-20 12:55 243 11 gusting 17 17.2
2019-Aug-20 12:50 238 6 gusting 12 17.2
2019-Aug-20 12:45
2019-Aug-20 12:40
2019-Aug-20 12:35
2019-Aug-20 12:30
2019-Aug-20 12:25 182 6 gusting 13 17.2
2019-Aug-20 12:20 182 6 gusting 13 17.2
2019-Aug-20 12:10 181 11 gusting 19 17.2
2019-Aug-20 12:05 248 6 gusting 14 17.2
2019-Aug-20 12:00 191 4 gusting 16 17.2
2019-Aug-20 11:55 217 7 gusting 16 17.2
2019-Aug-20 11:50 276 6 gusting 13 16.7
2019-Aug-20 11:40 252 7 gusting 14 16.1
2019-Aug-20 11:35 207 6 gusting 19 16.7
2019-Aug-20 11:30 221 9 gusting 19 16.7
2019-Aug-20 11:25 163 4 gusting 13 16.7
2019-Aug-20 11:20 184 4 gusting 18 16.7
2019-Aug-20 11:15 214 6 gusting 18 16.7
2019-Aug-20 11:10 261 5 gusting 11 16.7
2019-Aug-20 11:05 216 5 gusting 12 16.7
2019-Aug-20 10:55 252 9 gusting 19 16.7
2019-Aug-20 10:50 226 5 gusting 19 17.2
2019-Aug-20 10:45 229 6 gusting 13 16.7
2019-Aug-20 10:36 194 6 gusting 14 16.7
2019-Aug-20 10:35 175 6 gusting 14 16.7
2019-Aug-20 10:26 198 8 gusting 20 16.1
2019-Aug-20 10:20 217 7 gusting 18 16.1
2019-Aug-20 10:16 192 7 gusting 13 16.1
2019-Aug-20 10:11 217 6 gusting 19 16.1
2019-Aug-20 10:06 194 9 gusting 19 16.1
2019-Aug-20 10:02 215 6 gusting 13 16.1
2019-Aug-20 09:55 238 9 gusting 15 16.1
2019-Aug-20 09:50 205 6 gusting 12 16.1
2019-Aug-20 09:46 242 5 gusting 13 15.6
2019-Aug-20 09:40 161 6 gusting 11 15.6
2019-Aug-20 09:35 173 6 gusting 12 15.6
2019-Aug-20 09:31 184 5 gusting 9 15.6
2019-Aug-20 09:25 200 4 gusting 9 15.0
2019-Aug-20 09:20 177 4 gusting 9 15.0
2019-Aug-20 09:16 181 1 gusting 7 15.0
2019-Aug-20 09:10 190 4 gusting 7 14.4
2019-Aug-20 09:05 173 4 gusting 7 14.4
2019-Aug-20 09:01 182 3 gusting 6 15.0
2019-Aug-20 08:55 194 3 gusting 6 15.0
2019-Aug-20 08:50 187 4 gusting 7 15.0
2019-Aug-20 08:46 162 5 gusting 12 14.4
2019-Aug-20 08:40 197 4 gusting 12 14.4
2019-Aug-20 08:35 186 4 gusting 7 14.4
2019-Aug-20 08:31 182 2 gusting 6 14.4
2019-Aug-20 08:25 175 3 gusting 6 13.9
2019-Aug-20 08:20 148 1 gusting 5 13.9
2019-Aug-20 08:16 148 1 gusting 5 13.3
2019-Aug-20 08:10 172 2 gusting 5 13.3
2019-Aug-20 08:05 182 2 gusting 5 12.8
2019-Aug-20 08:00 180 3 gusting 5 12.8
2019-Aug-20 07:55 175 2 gusting 6 12.8
2019-Aug-20 07:50 182 3 gusting 6 12.2
2019-Aug-20 07:46 203 2 gusting 5 12.2
2019-Aug-20 07:40 205 2 gusting 6 12.2
2019-Aug-20 07:35 190 2 gusting 4 12.2
2019-Aug-20 07:30 188 1 gusting 6 12.2
2019-Aug-20 07:25 197 1 gusting 7 12.2
2019-Aug-20 07:20 203 3 gusting 8 12.2
2019-Aug-20 07:16 211 6 gusting 8 12.2
2019-Aug-20 07:10 215 5 gusting 8 12.2
2019-Aug-20 07:05 212 1 gusting 5 12.2
2019-Aug-20 07:00 185 1 gusting 9 12.2
2019-Aug-20 06:55 182 4 gusting 9 12.2
2019-Aug-20 06:50 211 1 gusting 5 12.2
2019-Aug-20 06:46 190 1 gusting 4 12.2
2019-Aug-20 06:35 189 2 gusting 6 12.2
2019-Aug-20 06:30 209 3 gusting 9 12.2
2019-Aug-20 06:25 199 3 gusting 10 12.2
2019-Aug-20 06:20 210 6 gusting 10 11.7
2019-Aug-20 06:15 192 0 gusting 3 12.2
2019-Aug-20 06:10 192 11.7
2019-Aug-20 06:05 192 11.7
2019-Aug-20 05:55 192 11.1
2019-Aug-20 05:50 192 11.1
2019-Aug-20 05:40 192 11.1
2019-Aug-20 05:35 192 11.1
2019-Aug-20 05:25 192 11.1
2019-Aug-20 05:20 192 11.1
2019-Aug-20 05:10 192 11.1
2019-Aug-20 05:05 192 11.1
2019-Aug-20 04:55 192 11.1
2019-Aug-20 04:50 192 11.7
2019-Aug-20 04:40 192 11.7
2019-Aug-20 04:35 192 0 gusting 3 11.7
2019-Aug-20 04:30 192 0 gusting 2 11.1
2019-Aug-20 04:25 192 11.1
2019-Aug-20 04:20 192 0 gusting 3 11.1
2019-Aug-20 04:15 192 0 gusting 3 11.1
2019-Aug-20 04:06 192 0 gusting 4 11.1
2019-Aug-20 04:02 192 0 gusting 4 11.1
2019-Aug-20 03:56 192 1 gusting 3 11.1
2019-Aug-20 03:51 192 1 gusting 3 11.1
2019-Aug-20 03:47 192 1 gusting 4 11.1
2019-Aug-20 03:40 192 2 gusting 4 11.1
2019-Aug-20 03:32 192 1 gusting 4 11.1
2019-Aug-20 03:25 192 1 gusting 3 11.1
2019-Aug-20 03:20 192 0 gusting 3 11.1
2019-Aug-20 03:16 192 0 gusting 3 11.1
2019-Aug-20 03:10 192 1 gusting 4 11.1
2019-Aug-20 03:05 192 1 gusting 5 11.1
2019-Aug-20 03:01 192 1 gusting 5 11.1
2019-Aug-20 02:56 192 2 gusting 4 11.1
2019-Aug-20 02:51 192 2 gusting 5 11.1
2019-Aug-20 02:46 192 3 gusting 6 11.7
2019-Aug-20 02:40 192 3 gusting 6 11.7
2019-Aug-20 02:35 192 3 gusting 5 11.7
2019-Aug-20 02:32 204 1 gusting 3 11.7
2019-Aug-20 02:25 204 1 gusting 4 11.7
2019-Aug-20 02:20 204 0 gusting 6 11.7
2019-Aug-20 02:16 201 2 gusting 6 11.7
2019-Aug-20 02:10 207 2 gusting 6 11.7
2019-Aug-20 02:05 207 3 gusting 5 11.7
2019-Aug-20 02:02 188 2 gusting 5 11.7
2019-Aug-20 01:55 188 2 gusting 5 11.7
2019-Aug-20 01:50 193 2 gusting 4 11.7
2019-Aug-20 01:46 193 1 gusting 3 11.7
2019-Aug-20 01:40 193 1 gusting 4 11.7
2019-Aug-20 01:35 193 1 gusting 4 11.7
2019-Aug-20 01:31 193 1 gusting 3 11.7
2019-Aug-20 01:25 193 2 gusting 4 11.7
2019-Aug-20 01:20 193 2 gusting 5 12.2
2019-Aug-20 01:16 193 3 gusting 5 12.2
2019-Aug-20 01:10 202 12.2
2019-Aug-20 01:05 202 0 gusting 3 12.2
2019-Aug-20 01:01 202 0 gusting 4 12.2
2019-Aug-20 00:55 202 1 gusting 4 12.2
2019-Aug-20 00:50 206 1 gusting 5 12.2
2019-Aug-20 00:46 206 2 gusting 5 12.2
2019-Aug-20 00:40 206 1 gusting 6 12.2
2019-Aug-20 00:35 206 2 gusting 6 12.2
2019-Aug-20 00:31 204 1 gusting 6 12.2
2019-Aug-20 00:25 204 2 gusting 6 12.2
2019-Aug-20 00:20 202 2 gusting 5 12.2
2019-Aug-20 00:15 190 2 gusting 5 12.2
2019-Aug-20 00:10 190 2 gusting 5 12.2
2019-Aug-20 00:05 191 1 gusting 5 12.2
2019-Aug-20 00:00 186 1 gusting 5 12.2
2019-Aug-19 23:55 188 3 gusting 5 12.2
2019-Aug-19 23:50 194 1 gusting 4 12.2
2019-Aug-19 23:46 194 1 gusting 2 12.2
2019-Aug-19 23:40 194 1 gusting 5 12.2
2019-Aug-19 23:35 200 2 gusting 6 12.2
2019-Aug-19 23:31 236 2 gusting 6 12.2
2019-Aug-19 23:20 191 3 gusting 7 12.2
2019-Aug-19 23:17 187 3 gusting 7 12.2
2019-Aug-19 23:10 193 5 gusting 7 12.2
2019-Aug-19 23:05 184 5 gusting 7 12.2
2019-Aug-19 23:00 192 5 gusting 7 12.2
2019-Aug-19 22:55 197 3 gusting 5 12.2
2019-Aug-19 22:50 182 1 gusting 6 12.2
2019-Aug-19 22:45 186 2 gusting 6 12.2
2019-Aug-19 22:40 202 3 gusting 6 12.2
2019-Aug-19 22:35 182 3 gusting 5 12.2
2019-Aug-19 22:30 178 3 gusting 5 12.2
2019-Aug-19 22:25 177 12.2
2019-Aug-19 22:20 178 1 gusting 3 12.2
2019-Aug-19 22:15 177 1 gusting 3 12.2
2019-Aug-19 22:10 177 0 gusting 4 12.2
2019-Aug-19 22:05 177 2 gusting 4 12.2
2019-Aug-19 22:01 177 12.2
2019-Aug-19 21:55 177 1 gusting 3 12.2
2019-Aug-19 21:50 177 0 gusting 2 12.2
2019-Aug-19 21:46 177 12.2
2019-Aug-19 21:40 177 1 gusting 2 12.2
2019-Aug-19 21:35 177 12.2
2019-Aug-19 21:30 177 0 gusting 2 12.8
2019-Aug-19 21:25 178 0 gusting 2 12.8
2019-Aug-19 21:20 177 0 gusting 2 12.8
2019-Aug-19 21:15 177 12.8
2019-Aug-19 21:10 177 0 gusting 3 12.8
2019-Aug-19 21:05 177 0 gusting 3 12.8
2019-Aug-19 21:01 177 0 gusting 4 12.8
2019-Aug-19 20:55 177 1 gusting 4 12.8
2019-Aug-19 20:50 177 1 gusting 4 12.8
2019-Aug-19 20:45 177 1 gusting 4 12.8
2019-Aug-19 20:40 177 1 gusting 4 12.8
2019-Aug-19 20:35 177 1 gusting 4 12.8
2019-Aug-19 20:30 178 2 gusting 3 12.8
2019-Aug-19 20:25 177 1 gusting 3 12.8
2019-Aug-19 20:20 177 2 gusting 5 12.8
2019-Aug-19 20:10 177 2 gusting 5 12.8
2019-Aug-19 20:05 177 2 gusting 4 12.8
2019-Aug-19 19:55 177 1 gusting 5 12.8
2019-Aug-19 19:50 177 2 gusting 5 13.3
2019-Aug-19 19:45 196 2 gusting 4 13.3
2019-Aug-19 19:40 196 2 gusting 5 13.3
2019-Aug-19 19:35 196 3 gusting 5 13.3
2019-Aug-19 19:25 202 2 gusting 5 13.3
2019-Aug-19 19:20 202 2 gusting 6 13.3
2019-Aug-19 19:10 191 2 gusting 6 13.3
2019-Aug-19 19:05 186 1 gusting 5 13.3